This demonstration page uses our WeatherBlox Daily Observations layout. Learn more.

Left ArrowRight Arrow

36.17497, -115.13722

Hourly Observations for July 19, 2020

Temp ( °F °C ) Dew Point ( °F °C ) Humidity (%) Winds ( mph kmh ) Pressure ( in mb ) Visibility ( mi km ) Precip ( " mm )
12:53 am 00:53 Clear 93 33.9 31 -0.6 11 11 Calm 29.78 1009 10 16 0.00 0.00
1:53 am 01:53 Clear 88 31.1 37 2.8 16 16 WNW 5 7 29.78 1009 10 16 0.00 0.00
2:53 am 02:53 Clear 88 31.1 37 2.8 16 16 N 5 7 29.78 1008 10 16 0.00 0.00
3:53 am 03:53 Clear 86 30 33 0.6 15 15 WNW 5 7 29.78 1009 10 16 0.00 0.00
4:53 am 04:53 Clear 88 31.1 33 0.6 14 14 WSW 6 9 29.79 1009 10 16 0.00 0.00
5:53 am 05:53 Sunny 86 30 30 -1.1 13 13 WNW 9 15 29.80 1009 10 16 0.00 0.00
6:53 am 06:53 Sunny 88 31.1 30 -1.1 12 12 NW 3 6 29.82 1010 10 16 0.00 0.00
7:53 am 07:53 Sunny 92 33.3 29 -1.7 10 10 S 5 7 29.84 1010 10 16 0.00 0.00
8:53 am 08:53 Sunny 96 35.6 32 0 10 10 Calm 29.84 1011 10 16 0.00 0.00
9:53 am 09:53 Sunny 99 37.2 30 -1.1 9 9 Calm 29.85 1011 10 16 0.00 0.00
10:26 am 10:26 Sunny 100 37.8 30 -1.1 8 8 E 3 6 29.70 1006 10 16 0.00 0.00
10:53 am 10:53 Sunny 101 38.3 30 -1.1 8 8 Calm 29.86 1011 10 16 0.00 0.00
11:53 am 11:53 Sunny 102 38.9 29 -1.7 8 8 ENE 5 7 29.87 1011 10 16 0.00 0.00
12:53 pm 12:53 Sunny 105 40.6 32 0 8 8 VRB 3 6 29.85 1011 10 16 0.00 0.00
1:53 pm 13:53 Sunny 108 42.2 39 3.9 9 9 S 8 13 29.82 1010 10 16 0.00 0.00
2:53 pm 14:53 Sunny 107 41.7 40 4.4 10 10 VRB 3 6 29.79 1009 10 16 0.00 0.00
3:53 pm 15:53 Sunny 108 42.2 39 3.9 9 9 undefined N/A 29.76 1008 10 16 0.00 0.00
4:53 pm 16:53 Sunny 108 42.2 38 3.3 9 9 E 3 6 29.74 1007 10 16 0.00 0.00
5:53 pm 17:53 Sunny 108 42.2 38 3.3 9 9 S 9 15 29.72 1006 10 16 0.00 0.00
6:53 pm 18:53 Sunny 108 42.2 38 3.3 9 9 SSE 8 13 29.71 1006 10 16 0.00 0.00
7:53 pm 19:53 Sunny 105 40.6 38 3.3 10 10 ESE 6 9 29.71 1006 10 16 0.00 0.00
8:53 pm 20:53 Clear 103 39.4 40 4.4 11 11 S 7 11 29.72 1006 10 16 0.00 0.00
9:53 pm 21:53 Clear 102 38.9 36 2.2 10 10 SSW 5 7 29.73 1007 10 16 0.00 0.00
10:53 pm 22:53 Clear 101 38.3 36 2.2 10 10 WSW 6 9 29.74 1007 10 16 0.00 0.00
11:53 pm 23:53 Clear 98 36.7 35 1.7 11 11 Calm 29.75 1008 10 16 0.00 0.00

Powered by AerisWeather